User: anonymous   Login
Location: Unspecified
(0.0000°N, 0.0000°E)
Time: 08:51:27
(UTC+00:00)
Language:

STARLINK-34510 - Orbit

View from above orbital plane
View from above orbital plane
View from above satellite
View from above satellite

Ground track
Ground track

The orbit is defined by the following mean orbital elements,

1 64596U          26145.50435375 +.00000000 +00000-0 +60912-3 0 00004
2 64596  53.1586 338.5787 0001527  86.7888 273.3287 15.30210226    05
Epoch (UTC): 25 May 2026 12:06:16
Eccentricity: 0.0001527
inclination: 53.1586°
perigee height: 474 km
apogee height: 476 km
right ascension of ascending node: 338.5787°
argument of perigee: 86.7888°
revolutions per day: 15.30210226
mean anomaly at epoch: 273.3287°

The dashed part of the orbit path shows where the satellite is in the earth's shadow,  

DLR